LIC0257 LEBA-LEBL

Flight info

Callsign LIC0257
Flight time 1h 5m
Altitude 38000
Route ALCOL N747 YES M985 VLC L34 CASIM N608 MATEX
Aircraft A320/M-SDE3FGHIRWY/LB1

Departure

Time 2026-05-06 16:57
Airport Córdoba Airport (LEBA)

Arrival

Time 2026-05-06 18:02
Airport Josep Tarradellas Barcelona-El Prat Airport (LEBL)
Time Latitude Longitude Altitude Speed Heading
2026-05-06 16:43 37.84364 -4.84521 310 ft 0 kts 121°
2026-05-06 16:52 37.84374 -4.84545 311 ft 4 kts 84°
2026-05-06 16:52 37.84370 -4.84557 307 ft 0 kts 29°
2026-05-06 16:54 37.84406 -4.84513 310 ft 10 kts 71°
2026-05-06 16:54 37.84444 -4.84467 309 ft 6 kts 341°
2026-05-06 16:55 37.84483 -4.84510 309 ft 10 kts 303°
2026-05-06 16:55 37.84519 -4.84584 308 ft 11 kts 301°
2026-05-06 16:55 37.84601 -4.84599 307 ft 18 kts 31°
2026-05-06 16:55 37.84683 -4.84501 309 ft 14 kts 51°
2026-05-06 16:56 37.84731 -4.84494 308 ft 2 kts 304°
2026-05-06 16:56 37.84725 -4.84513 309 ft 7 kts 244°
2026-05-06 16:56 37.84653 -4.84577 307 ft 29 kts 211°
2026-05-06 16:56 37.84182 -4.84899 304 ft 122 kts 208°
2026-05-06 16:57 37.83300 -4.85520 751 ft 150 kts 208°
2026-05-06 16:57 37.82362 -4.86165 1580 ft 157 kts 209°
2026-05-06 16:57 37.81388 -4.86842 2106 ft 168 kts 209°
2026-05-06 16:57 37.80287 -4.87608 2404 ft 194 kts 209°
2026-05-06 16:58 37.78974 -4.88310 2829 ft 218 kts 188°
2026-05-06 16:58 37.77410 -4.87998 3312 ft 246 kts 153°
2026-05-06 16:58 37.76195 -4.86376 3939 ft 267 kts 114°
2026-05-06 16:58 37.75947 -4.84043 4811 ft 276 kts 80°
2026-05-06 16:59 37.76584 -4.81748 5821 ft 279 kts 63°
2026-05-06 16:59 37.77564 -4.79634 6785 ft 281 kts 57°
2026-05-06 16:59 37.78649 -4.77564 7705 ft 283 kts 56°
2026-05-06 16:59 37.79736 -4.75463 8616 ft 287 kts 57°
2026-05-06 17:00 37.80795 -4.73301 9506 ft 291 kts 59°
2026-05-06 17:00 37.81824 -4.71067 10266 ft 300 kts 60°
2026-05-06 17:00 37.82883 -4.68660 10576 ft 324 kts 62°
2026-05-06 17:00 37.83977 -4.66088 11094 ft 338 kts 62°
2026-05-06 17:01 37.85085 -4.63440 11837 ft 343 kts 63°
2026-05-06 17:01 37.86206 -4.60748 12595 ft 349 kts 63°
2026-05-06 17:01 37.87346 -4.58011 13359 ft 354 kts 63°
2026-05-06 17:01 37.88503 -4.55234 14044 ft 360 kts 63°
2026-05-06 17:02 37.89680 -4.52414 14702 ft 365 kts 63°
2026-05-06 17:02 37.90877 -4.49556 15358 ft 369 kts 63°
2026-05-06 17:02 37.92091 -4.46663 16021 ft 374 kts 62°
2026-05-06 17:02 37.93317 -4.43741 16665 ft 378 kts 62°
2026-05-06 17:03 37.94557 -4.40781 17316 ft 383 kts 62°
2026-05-06 17:03 37.95809 -4.37784 17959 ft 387 kts 62°
2026-05-06 17:03 37.97075 -4.34747 18549 ft 391 kts 62°
2026-05-06 17:03 37.98355 -4.31671 19096 ft 396 kts 62°
2026-05-06 17:04 37.99646 -4.28569 19654 ft 400 kts 62°
2026-05-06 17:04 38.00954 -4.25427 20210 ft 404 kts 62°
2026-05-06 17:04 38.02272 -4.22258 20762 ft 409 kts 62°
2026-05-06 17:04 38.03604 -4.19056 21322 ft 413 kts 62°
2026-05-06 17:05 38.04949 -4.15819 21863 ft 417 kts 62°
2026-05-06 17:05 38.06306 -4.12545 22416 ft 421 kts 62°
2026-05-06 17:05 38.07674 -4.09239 22956 ft 426 kts 62°
2026-05-06 17:05 38.09055 -4.05896 23485 ft 430 kts 62°
2026-05-06 17:06 38.10450 -4.02517 23926 ft 434 kts 62°
2026-05-06 17:06 38.11857 -3.99105 24348 ft 438 kts 62°
2026-05-06 17:06 38.13278 -3.95659 24792 ft 441 kts 63°
2026-05-06 17:06 38.14711 -3.92182 25208 ft 445 kts 63°
2026-05-06 17:07 38.16153 -3.88682 25599 ft 449 kts 63°
2026-05-06 17:07 38.17605 -3.85148 25989 ft 453 kts 63°
2026-05-06 17:07 38.19067 -3.81586 26378 ft 456 kts 63°
2026-05-06 17:07 38.20525 -3.78038 26712 ft 461 kts 63°
2026-05-06 17:08 38.22013 -3.74408 27085 ft 465 kts 63°
2026-05-06 17:08 38.23509 -3.70743 27441 ft 468 kts 63°
2026-05-06 17:08 38.25015 -3.67045 27802 ft 472 kts 63°
2026-05-06 17:08 38.26531 -3.63319 28152 ft 476 kts 63°
2026-05-06 17:09 38.28056 -3.59565 28504 ft 479 kts 63°
2026-05-06 17:09 38.29592 -3.55787 28836 ft 483 kts 63°
2026-05-06 17:09 38.31141 -3.51976 29178 ft 486 kts 64°
2026-05-06 17:09 38.32704 -3.48132 29476 ft 489 kts 64°
2026-05-06 17:10 38.34272 -3.44274 29800 ft 493 kts 64°
2026-05-06 17:10 38.35853 -3.40381 30086 ft 496 kts 63°
2026-05-06 17:10 38.37439 -3.36466 30346 ft 499 kts 64°
2026-05-06 17:10 38.39031 -3.32522 30613 ft 501 kts 64°
2026-05-06 17:11 38.40628 -3.28556 30869 ft 503 kts 64°
2026-05-06 17:11 38.42234 -3.24562 31112 ft 506 kts 64°
2026-05-06 17:11 38.43840 -3.20567 31361 ft 508 kts 64°
2026-05-06 17:11 38.45433 -3.16600 31574 ft 511 kts 64°
2026-05-06 17:12 38.47078 -3.12499 31824 ft 513 kts 64°
2026-05-06 17:12 38.48679 -3.08505 32087 ft 513 kts 64°
2026-05-06 17:12 38.50304 -3.04446 32394 ft 514 kts 64°
2026-05-06 17:12 38.51933 -3.00373 32637 ft 516 kts 64°
2026-05-06 17:13 38.53567 -2.96289 32922 ft 517 kts 64°
2026-05-06 17:13 38.55198 -2.92205 33222 ft 517 kts 64°
2026-05-06 17:13 38.56831 -2.88103 33527 ft 517 kts 64°
2026-05-06 17:13 38.58457 -2.84000 33831 ft 518 kts 64°
2026-05-06 17:14 38.60083 -2.79892 34106 ft 518 kts 64°
2026-05-06 17:14 38.61710 -2.75787 34400 ft 517 kts 64°
2026-05-06 17:14 38.63338 -2.71679 34762 ft 515 kts 64°
2026-05-06 17:14 38.64949 -2.67608 35107 ft 512 kts 63°
2026-05-06 17:15 38.66559 -2.63535 35340 ft 512 kts 63°
2026-05-06 17:15 38.68168 -2.59459 35603 ft 512 kts 63°
2026-05-06 17:15 38.69772 -2.55388 35877 ft 511 kts 63°
2026-05-06 17:15 38.71367 -2.51328 36165 ft 510 kts 63°
2026-05-06 17:16 38.72958 -2.47280 36430 ft 508 kts 63°
2026-05-06 17:16 38.74548 -2.43233 36698 ft 507 kts 63°
2026-05-06 17:16 38.76135 -2.39197 36951 ft 506 kts 63°
2026-05-06 17:16 38.77716 -2.35172 37205 ft 505 kts 63°
2026-05-06 17:17 38.79268 -2.31202 37447 ft 504 kts 63°
2026-05-06 17:17 38.80832 -2.27183 37672 ft 503 kts 63°
2026-05-06 17:17 38.82389 -2.23171 37868 ft 503 kts 63°
2026-05-06 17:18 38.85500 -2.15155 37901 ft 500 kts 63°
2026-05-06 17:18 38.88602 -2.07168 37909 ft 500 kts 63°
2026-05-06 17:19 38.91698 -1.99180 37912 ft 499 kts 63°
2026-05-06 17:19 38.94786 -1.91192 37911 ft 499 kts 63°
2026-05-06 17:20 38.97880 -1.83168 37915 ft 501 kts 63°
2026-05-06 17:20 39.00952 -1.75168 37918 ft 502 kts 63°
2026-05-06 17:21 39.04037 -1.67101 37919 ft 502 kts 63°
2026-05-06 17:21 39.07109 -1.59038 37925 ft 502 kts 63°
2026-05-06 17:22 39.10186 -1.50958 37917 ft 502 kts 63°
2026-05-06 17:22 39.13255 -1.42876 37938 ft 502 kts 63°
2026-05-06 17:23 39.16320 -1.34794 37943 ft 502 kts 63°
2026-05-06 17:23 39.19382 -1.26697 37942 ft 502 kts 63°
2026-05-06 17:24 39.22438 -1.18588 37946 ft 502 kts 63°
2026-05-06 17:24 39.25461 -1.10532 37936 ft 502 kts 63°
2026-05-06 17:25 39.28521 -1.02358 37948 ft 502 kts 64°
2026-05-06 17:25 39.31547 -0.94256 37946 ft 501 kts 63°
2026-05-06 17:26 39.34519 -0.86302 37943 ft 501 kts 64°
2026-05-06 17:26 39.37602 -0.78028 37945 ft 499 kts 64°
2026-05-06 17:27 39.40599 -0.69932 37924 ft 500 kts 64°
2026-05-06 17:27 39.43591 -0.61823 37916 ft 500 kts 64°
2026-05-06 17:28 39.46649 -0.53807 37926 ft 499 kts 57°
2026-05-06 17:28 39.50997 -0.46836 37925 ft 492 kts 38°
2026-05-06 17:29 39.56477 -0.41739 37933 ft 487 kts 28°
2026-05-06 17:29 39.62197 -0.37000 37950 ft 488 kts 28°
2026-05-06 17:30 39.67918 -0.32219 37941 ft 489 kts 28°
2026-05-06 17:30 39.73642 -0.27420 37944 ft 490 kts 28°
2026-05-06 17:31 39.78416 -0.23419 37936 ft 490 kts 28°
2026-05-06 17:31 39.84161 -0.18612 37975 ft 491 kts 29°
2026-05-06 17:32 39.89899 -0.13793 37967 ft 490 kts 29°
2026-05-06 17:32 39.95630 -0.08961 37966 ft 490 kts 29°
2026-05-06 17:33 40.01358 -0.04129 37967 ft 490 kts 29°
2026-05-06 17:33 40.07087 0.00712 37825 ft 490 kts 29°
2026-05-06 17:33 40.09946 0.03133 37555 ft 490 kts 29°
2026-05-06 17:34 40.12800 0.05553 37026 ft 491 kts 29°
2026-05-06 17:34 40.15664 0.07985 36339 ft 490 kts 28°
2026-05-06 17:34 40.18526 0.10420 35634 ft 491 kts 28°
2026-05-06 17:34 40.21421 0.12783 34865 ft 490 kts 23°
2026-05-06 17:35 40.24496 0.14687 34095 ft 487 kts 14°
2026-05-06 17:35 40.27743 0.16071 33166 ft 486 kts
2026-05-06 17:35 40.31009 0.17283 32357 ft 487 kts
2026-05-06 17:36 40.37519 0.19705 31087 ft 481 kts
2026-05-06 17:36 40.40728 0.20914 30517 ft 478 kts 10°
2026-05-06 17:36 40.43916 0.22120 29952 ft 475 kts 10°
2026-05-06 17:36 40.47086 0.23320 29370 ft 471 kts 10°
2026-05-06 17:37 40.50212 0.24503 28825 ft 466 kts 11°
2026-05-06 17:37 40.53245 0.26024 28284 ft 468 kts 21°
2026-05-06 17:37 40.56054 0.28194 27755 ft 469 kts 32°
2026-05-06 17:37 40.58530 0.30950 27334 ft 466 kts 43°
2026-05-06 17:38 40.60677 0.34122 27026 ft 463 kts 46°
2026-05-06 17:38 40.62783 0.37311 26626 ft 459 kts 46°
2026-05-06 17:38 40.64852 0.40429 26255 ft 457 kts 46°
2026-05-06 17:38 40.66943 0.43580 25875 ft 454 kts 46°
2026-05-06 17:39 40.69015 0.46707 25495 ft 451 kts 46°
2026-05-06 17:39 40.71070 0.49813 25122 ft 448 kts 46°
2026-05-06 17:39 40.73106 0.52896 24752 ft 444 kts 46°
2026-05-06 17:39 40.75130 0.55966 24352 ft 441 kts 46°
2026-05-06 17:40 40.77137 0.59013 23885 ft 439 kts 46°
2026-05-06 17:40 40.79139 0.62059 23356 ft 438 kts 46°
2026-05-06 17:40 40.81142 0.65116 22524 ft 442 kts 46°
2026-05-06 17:40 40.83156 0.68193 22000 ft 439 kts 46°
2026-05-06 17:41 40.85134 0.71223 21741 ft 430 kts 46°
2026-05-06 17:41 40.87070 0.74190 21475 ft 422 kts 46°
2026-05-06 17:41 40.88971 0.77098 21213 ft 415 kts 46°
2026-05-06 17:41 40.90856 0.79982 20973 ft 413 kts 46°
2026-05-06 17:42 40.92725 0.82840 20719 ft 409 kts 46°
2026-05-06 17:42 40.94581 0.85678 20466 ft 407 kts 46°
2026-05-06 17:42 40.96425 0.88501 20211 ft 404 kts 46°
2026-05-06 17:42 40.98258 0.91312 19964 ft 402 kts 46°
2026-05-06 17:43 41.00071 0.94101 19782 ft 400 kts 47°
2026-05-06 17:43 41.01884 0.96891 19457 ft 397 kts 47°
2026-05-06 17:43 41.03655 0.99620 19138 ft 394 kts 47°
2026-05-06 17:43 41.05436 1.02366 18810 ft 391 kts 47°
2026-05-06 17:44 41.07222 1.05124 18477 ft 388 kts 47°
2026-05-06 17:44 41.08949 1.07793 18160 ft 385 kts 47°
2026-05-06 17:44 41.10682 1.10475 17814 ft 382 kts 47°
2026-05-06 17:44 41.12427 1.13178 17500 ft 379 kts 47°
2026-05-06 17:45 41.14109 1.15794 17193 ft 377 kts 49°
2026-05-06 17:45 41.15638 1.18617 16886 ft 376 kts 54°
2026-05-06 17:45 41.17115 1.21468 16562 ft 374 kts 54°
2026-05-06 17:45 41.18587 1.24310 16256 ft 372 kts 54°
2026-05-06 17:46 41.20046 1.27126 15948 ft 370 kts 54°
2026-05-06 17:46 41.21517 1.29968 15641 ft 367 kts 54°
2026-05-06 17:46 41.22958 1.32759 15338 ft 365 kts 54°
2026-05-06 17:46 41.24389 1.35535 15037 ft 363 kts 54°
2026-05-06 17:47 41.25796 1.38317 14752 ft 361 kts 59°
2026-05-06 17:47 41.26741 1.41387 14506 ft 361 kts 74°
2026-05-06 17:47 41.27406 1.44558 14269 ft 360 kts 74°
2026-05-06 17:47 41.28072 1.47765 14030 ft 358 kts 74°
2026-05-06 17:48 41.28728 1.50952 13791 ft 357 kts 74°
2026-05-06 17:48 41.29379 1.54132 13538 ft 355 kts 74°
2026-05-06 17:48 41.30025 1.57296 13270 ft 353 kts 74°
2026-05-06 17:48 41.30670 1.60449 13005 ft 352 kts 74°
2026-05-06 17:49 41.31312 1.63583 12738 ft 350 kts 74°
2026-05-06 17:49 41.31952 1.66704 12474 ft 349 kts 74°
2026-05-06 17:49 41.32590 1.69819 12056 ft 350 kts 73°
2026-05-06 17:49 41.33233 1.72955 11509 ft 352 kts 73°
2026-05-06 17:50 41.33879 1.76112 10966 ft 354 kts 73°
2026-05-06 17:50 41.34524 1.79279 10424 ft 355 kts 73°
2026-05-06 17:50 41.35161 1.82410 9993 ft 353 kts 73°
2026-05-06 17:50 41.35792 1.85510 9921 ft 339 kts 73°
2026-05-06 17:51 41.36390 1.88465 9940 ft 323 kts 73°
2026-05-06 17:51 41.36957 1.91292 9929 ft 310 kts 74°
2026-05-06 17:51 41.37508 1.94038 9799 ft 304 kts 74°
2026-05-06 17:51 41.38053 1.96753 9520 ft 303 kts 74°
2026-05-06 17:52 41.38598 1.99443 9242 ft 300 kts 73°
2026-05-06 17:52 41.39141 2.02120 8846 ft 299 kts 73°
2026-05-06 17:52 41.39682 2.04793 8456 ft 298 kts 73°
2026-05-06 17:52 41.40217 2.07451 8072 ft 297 kts 73°
2026-05-06 17:53 41.40750 2.10097 7692 ft 295 kts 73°
2026-05-06 17:53 41.41281 2.12736 7313 ft 293 kts 73°
2026-05-06 17:53 41.41805 2.15354 6942 ft 291 kts 73°
2026-05-06 17:53 41.42330 2.17983 6421 ft 295 kts 73°
2026-05-06 17:54 41.42864 2.20655 5784 ft 302 kts 73°
2026-05-06 17:54 41.43401 2.23355 5198 ft 307 kts 73°
2026-05-06 17:54 41.43950 2.26113 4713 ft 299 kts 73°
2026-05-06 17:54 41.44465 2.28708 4443 ft 281 kts 74°
2026-05-06 17:55 41.45041 2.31098 4179 ft 262 kts 66°
2026-05-06 17:55 41.45756 2.33230 4017 ft 241 kts 69°
2026-05-06 17:55 41.46042 2.35324 4047 ft 224 kts 92°
2026-05-06 17:55 41.45714 2.37297 3997 ft 216 kts 117°
2026-05-06 17:56 41.44889 2.38849 4004 ft 200 kts 140°
2026-05-06 17:56 41.43742 2.39846 3999 ft 196 kts 162°
2026-05-06 17:56 41.42425 2.40125 4006 ft 192 kts 188°
2026-05-06 17:56 41.41169 2.39640 4001 ft 188 kts 212°
2026-05-06 17:57 41.40202 2.38504 4007 ft 185 kts 237°
2026-05-06 17:57 41.39623 2.36990 4008 ft 184 kts 247°
2026-05-06 17:57 41.39094 2.35423 3960 ft 185 kts 247°
2026-05-06 17:57 41.38566 2.33862 3780 ft 184 kts 246°
2026-05-06 17:58 41.38054 2.32353 3558 ft 174 kts 246°
2026-05-06 17:58 41.37561 2.30898 3340 ft 171 kts 246°
2026-05-06 17:58 41.37070 2.29450 3136 ft 172 kts 245°
2026-05-06 17:58 41.36576 2.27996 2893 ft 168 kts 245°
2026-05-06 17:59 41.36104 2.26607 2671 ft 161 kts 244°
2026-05-06 17:59 41.35651 2.25273 2458 ft 158 kts 242°
2026-05-06 17:59 41.35198 2.23943 2245 ft 157 kts 242°
2026-05-06 17:59 41.34741 2.22602 2031 ft 159 kts 242°
2026-05-06 18:00 41.34284 2.21258 1808 ft 156 kts 244°
2026-05-06 18:00 41.33842 2.19959 1602 ft 153 kts 244°
2026-05-06 18:00 41.33406 2.18679 1407 ft 150 kts 241°
2026-05-06 18:00 41.32973 2.17409 1189 ft 151 kts 243°
2026-05-06 18:01 41.32534 2.16123 1012 ft 152 kts 244°
2026-05-06 18:01 41.32104 2.14863 794 ft 148 kts 244°
2026-05-06 18:01 41.31680 2.13621 577 ft 149 kts 245°
2026-05-06 18:01 41.31251 2.12365 383 ft 150 kts 242°
2026-05-06 18:02 41.30824 2.11113 197 ft 150 kts 243°
2026-05-06 18:02 41.30401 2.09862 29 ft 144 kts 242°
2026-05-06 18:02 41.30039 2.08827 20 ft 99 kts 245°
2026-05-06 18:02 41.29830 2.08254 21 ft 45 kts 242°
2026-05-06 18:03 41.29723 2.07996 18 ft 21 kts 234°
2026-05-06 18:03 41.29680 2.07933 17 ft 13 kts 221°
2026-05-06 18:03 41.29613 2.07854 18 ft 2 kts 221°
2026-05-06 18:04 41.29586 2.07826 19 ft 12 kts 218°
2026-05-06 18:04 41.29502 2.07737 18 ft 16 kts 219°
2026-05-06 18:04 41.29439 2.07615 18 ft 16 kts 243°
2026-05-06 18:05 41.29361 2.07537 18 ft 11 kts 202°
2026-05-06 18:05 41.29339 2.07515 19 ft 0 kts 229°
2026-05-06 18:05 41.29332 2.07501 18 ft 3 kts 239°
2026-05-06 18:05 41.29314 2.07457 18 ft 15 kts 242°
2026-05-06 18:06 41.29261 2.07395 18 ft 7 kts 190°
2026-05-06 18:06 41.29244 2.07389 18 ft 0 kts 201°
2026-05-06 18:06 41.29221 2.07360 18 ft 6 kts 226°
2026-05-06 18:06 41.29190 2.07353 18 ft 4 kts 170°
2026-05-06 18:07 41.29169 2.07362 18 ft 6 kts 159°
2026-05-06 18:07 41.29147 2.07374 18 ft 0 kts 157°